This demonstration page uses our WeatherBlox Daily Observations layout. Learn more.

Left ArrowRight Arrow

41.55636, -103.73856

Hourly Observations for November 8, 2021

Temp ( °F °C ) Dew Point ( °F °C ) Humidity (%) Winds ( mph kmh ) Pressure ( in mb ) Visibility ( mi km ) Precip ( " mm )
12:58 am 00:58 Clear 36 2.2 28 -2.2 73 73 N 6 9 30.06 1018 10 16 0.00 0.00
1:58 am 01:58 Clear 34 0.9 29 -1.4 85 85 N 7 11 30.11 1020 10 16 0.00 0.00
2:58 am 02:58 Mostly Cloudy 34 1.3 31 -0.6 87 87 N 6 9 30.12 1020 10 16 0.00 0.00
3:58 am 03:58 Clear 34 1.1 31 -0.7 88 88 N 3 6 30.14 1021 10 16 0.00 0.00
4:58 am 04:58 Clear 33 0.7 30 -1 89 89 NE 6 9 30.17 1022 10 16 0.00 0.00
5:58 am 05:58 Clear 32 0 28 -2.1 86 86 ENE 8 13 30.22 1023 10 16 0.00 0.00
6:58 am 06:58 Sunny 29 -1.7 27 -2.7 93 93 Calm 30.29 1026 10 16 0.00 0.00
7:58 am 07:58 Sunny 30 -0.9 29 -1.7 94 94 NW 5 7 30.35 1028 10 16 0.00 0.00
8:58 am 08:58 Sunny 35 1.6 32 0.2 91 91 Calm 30.34 1028 10 16 0.00 0.00
9:58 am 09:58 Sunny 40 4.3 32 -0.1 73 73 Calm 30.33 1027 10 16 0.00 0.00
10:58 am 10:58 Sunny 43 6.1 30 -1 61 61 ESE 6 9 30.31 1027 10 16 0.00 0.00
11:58 am 11:58 Sunny 46 7.8 30 -1.3 53 53 SE 7 11 30.27 1025 10 16 0.00 0.00
12:58 pm 12:58 Sunny 49 9.4 29 -1.7 46 46 ESE 10 17 30.23 1024 10 16 0.00 0.00
1:58 pm 13:58 Sunny 50 10.2 27 -2.6 41 41 ESE 10 17 30.22 1023 10 16 0.00 0.00
3:58 pm 15:58 Sunny 47 8.5 29 -1.6 49 49 SE 9 15 30.23 1024 10 16 0.00 0.00
4:58 pm 16:58 Mostly Cloudy 45 7.2 29 -1.4 55 55 SSE 10 17 30.26 1025 10 16 0.00 0.00
5:58 pm 17:58 Mostly Cloudy 43 6 30 -1.1 61 61 SSE 10 17 30.28 1026 10 16 0.00 0.00
6:58 pm 18:58 Mostly Cloudy 42 5.7 31 -0.8 63 63 SE 10 17 30.31 1026 10 16 0.00 0.00
7:58 pm 19:58 Cloudy 42 5.5 31 -0.4 66 66 SE 10 17 30.29 1026 10 16 0.00 0.00
8:58 pm 20:58 Mostly Cloudy 42 5.5 30 -1.1 63 63 SSE 10 17 30.30 1026 10 16 0.00 0.00
9:58 pm 21:58 Mostly Cloudy 41 4.8 29 -1.4 65 65 SSE 13 20 30.29 1026 10 16 0.00 0.00
10:58 pm 22:58 Mostly Cloudy 40 4.5 29 -1.7 64 64 S 17 28 30.27 1025 10 16 0.00 0.00
11:58 pm 23:58 Mostly Cloudy 38 3.1 29 -1.7 71 71 SSE 10 17 30.28 1025 10 16 0.00 0.00

Powered by AerisWeather